INTELSAT 701 1 22871U 93066A 21104.34289957 -.00000280 00000-0 00000+0 0 9999 2 22871 6.8932 60.1133 0007057 347.1037 43.1432 0.99323145100271 INTELSAT 26 (JCSAT 4) 1 24732U 97007A 21102.90281927 .00000004 00000-0 00000+0 0 9998 2 24732 9.4621 41.2279 0007864 1.1551 187.5603 1.00273167 88312 GALAXY 25 (TELSTAR 5) 1 24812U 97026A 21103.75058502 .00000156 00000-0 00000+0 0 9991 2 24812 2.6400 87.7479 0004419 336.6130 80.8652 1.00271235 87413 INTELSAT 5 (PAS 5) 1 24916U 97046A 21104.22026765 .00000092 00000-0 00000+0 0 9996 2 24916 6.3282 63.8140 0003947 337.0105 104.0940 1.00274361 86667 INTELSAT 805 1 25371U 98037A 21103.20029679 -.00000156 00000-0 00000+0 0 9999 2 25371 3.1720 85.2717 0008120 94.0049 19.8945 0.99474957 83562 AFRISTAR 1 25515U 98063A 21103.30419414 -.00000219 00000-0 00000+0 0 9999 2 25515 6.1099 63.4207 0007036 351.2922 210.8807 0.99008493 82016 INTELSAT 8 (PAS 8) 1 25522U 98065A 21103.56067359 -.00000125 00000-0 00000+0 0 9990 2 25522 4.2918 80.8514 0283641 253.9670 299.1371 0.95186167 81378 GALAXY 11 1 26038U 99071A 21104.44322083 -.00000160 00000-0 00000+0 0 9996 2 26038 1.9289 93.4264 0001219 165.3768 10.4923 1.00271892 78135 SIRIUS 1 1 26390U 00035A 21104.38850521 .00000015 00000-0 00000+0 0 9993 2 26390 59.3718 197.7786 0001421 288.8189 80.1523 1.57877059 85609 INTELSAT 9 (PAS 9) 1 26451U 00043A 21103.73401021 -.00000285 00000-0 00000+0 0 9995 2 26451 6.3148 64.0057 0002842 332.6148 19.7679 1.00271539 75882 INTELSAT 12 (PAS 12) 1 26590U 00068A 21103.68506763 .00000014 00000-0 00000+0 0 9998 2 26590 3.6397 83.5527 0006070 335.2230 94.1601 1.00272491 74843 INTELSAT 1R (PAS 1R) 1 26608U 00072A 21104.51867486 -.00000135 00000-0 00000+0 0 9993 2 26608 3.4318 83.6100 0000561 189.4800 273.6425 1.00271529 74707 INTELSAT 10 (PAS 10) 1 26766U 01019A 21103.77655417 -.00000348 00000-0 00000+0 0 9992 2 26766 4.5766 76.8046 0004880 323.2082 183.7669 1.00633198 72974 INTELSAT 901 1 26824U 01024A 21103.73854649 -.00000203 00000-0 00000+0 0 9997 2 26824 0.0435 74.0462 0000838 306.1897 60.2748 1.00271282 72630 INTELSAT 902 1 26900U 01039A 21103.73401021 -.00000282 00000-0 00000+0 0 9997 2 26900 1.3421 93.5235 0003233 304.5668 18.1867 1.00272654 71815 DIRECTV 4S 1 26985U 01052A 21102.77382271 -.00000174 00000-0 00000+0 0 9993 2 26985 1.4341 92.6702 0005994 319.4916 241.8672 0.99268104 70984 INTELSAT 904 1 27380U 02007A 21103.73811030 -.00000213 00000-0 00000+0 0 9995 2 27380 2.1788 90.3127 0003225 292.4471 55.6021 1.00272131 70138 INTELSAT 903 1 27403U 02016A 21102.77329928 -.00000211 00000-0 00000+0 0 9992 2 27403 2.9625 85.9585 0004246 310.1355 254.9960 0.99024987 69633 DIRECTV 5 (TEMPO 1) 1 27426U 02023A 21104.54766591 -.00000055 00000-0 00000+0 0 9999 2 27426 0.0656 92.6325 0003187 293.2131 264.1191 1.00272966 69357 INTELSAT 905 1 27438U 02027A 21103.73915713 -.00000184 00000-0 00000+0 0 9991 2 27438 2.0000 91.1246 0002696 285.3551 67.2641 1.00272825 69012 GALAXY 3C 1 27445U 02030A 21099.56204751 -.00000166 00000-0 00000-0 0 9992 2 27445 0.0189 278.4933 0001805 50.1965 336.5915 1.00270091 27504 INTELSAT 906 1 27513U 02041A 21104.17792490 .00000016 00000-0 00000+0 0 9998 2 27513 1.0082 95.3982 0003449 300.7652 294.6005 1.00270600 68017 INTELSAT 907 1 27683U 03007A 21103.77474801 -.00000115 00000-0 00000+0 0 9998 2 27683 0.9054 90.0247 0006531 330.2373 163.6396 0.99158031 66398 GALAXY 12 1 27715U 03013B 21104.53514205 .00000061 00000-0 00000+0 0 9998 2 27715 2.2157 89.7796 0001732 291.0588 245.7179 1.00271111 66059 GALAXY 23 (TELSTAR 13) 1 27854U 03034A 21103.63718126 .00000012 00000-0 00000+0 0 9999 2 27854 0.0153 222.8625 0002987 157.9569 289.5971 1.00272570 69585 HORIZONS 1 (GALAXY 13) 1 27954U 03044A 21103.63331253 .00000047 00000-0 00000+0 0 9991 2 27954 0.0211 261.0654 0001113 256.2552 145.6577 1.00269858 64194 DIRECTV 7S 1 28238U 04016A 21103.21147944 -.00000176 00000-0 00000+0 0 9997 2 28238 0.2552 92.9373 0005822 8.4247 121.4094 0.98918126 62085 INTELSAT 1002 1 28358U 04022A 21103.74378063 -.00000012 00000-0 00000+0 0 9992 2 28358 0.0461 91.5231 0001519 287.6085 89.7454 1.00272781 61677 XM-3 1 28626U 05008A 21104.44479108 -.00000204 00000-0 00000+0 0 9998 2 28626 0.0198 238.2679 0001816 209.0975 190.4649 1.00269550 59116 SPACEWAY 1 1 28644U 05015A 21104.45150825 -.00000143 00000-0 00000+0 0 9991 2 28644 1.8515 91.1907 0003486 12.3269 211.0113 0.98491720 58481 DIRECTV 8 1 28659U 05019A 21104.54581291 .00000003 00000-0 00000+0 0 9990 2 28659 0.0106 249.6358 0002653 141.5079 249.2233 1.00270239 58236 GALAXY 28 (IA 8) 1 28702U 05022A 21104.44400597 -.00000184 00000-0 00000+0 0 9992 2 28702 0.0198 139.1684 0002742 224.8207 269.6838 1.00270588 57871 GALAXY 14 1 28790U 05030A 21104.23419272 -.00000272 00000-0 00000+0 0 9993 2 28790 0.1973 93.2104 0003672 266.6734 214.5579 1.00525448 57340 GALAXY 15 1 28884U 05041A 21104.43676015 .00000079 00000-0 00000+0 0 9995 2 28884 0.0257 127.8747 0002339 273.9882 185.1865 1.00277471 56675 SPACEWAY 2 1 28903U 05046B 21103.71630132 .00000103 00000-0 00000+0 0 9990 2 28903 0.8997 92.0274 0000136 337.8896 251.1546 1.00273061 56538 GALAXY 16 1 29236U 06023A 21104.50529530 -.00000127 00000-0 00000+0 0 9990 2 29236 0.0245 268.6171 0002952 128.6988 248.4855 1.00280455 54310 DIRECTV 9S 1 29494U 06043A 21103.65200522 -.00000114 00000-0 00000+0 0 9996 2 29494 0.0220 161.2451 0002999 231.1028 303.2207 1.00272240 53148 XM-4 1 29520U 06049A 21103.64199463 -.00000024 00000-0 00000+0 0 9992 2 29520 0.0227 222.3497 0000352 226.6590 228.9134 1.00270314 53038 GALAXY 17 1 31307U 07016B 21104.22104975 -.00000174 00000-0 00000+0 0 9998 2 31307 0.0436 78.2216 0003410 320.7653 152.1913 1.00270649 51129 DIRECTV 10 1 31862U 07032A 21104.50332028 -.00000102 00000-0 00000+0 0 9996 2 31862 0.0493 60.7699 0000111 64.7212 155.7988 1.00272203 50454 SPACEWAY 3 1 32018U 07036A 21104.44287189 -.00000151 00000-0 00000+0 0 9998 2 32018 0.0230 47.0552 0000212 276.8868 303.3602 1.00272384 50171 INTELSAT 11 (PAS 11) 1 32253U 07044B 21103.73540598 -.00000269 00000-0 00000+0 0 9995 2 32253 0.0281 229.2495 0001736 161.2232 33.4183 1.00269577 49579 HORIZONS 2 1 32388U 07063B 21103.79355000 -.00000183 00000-0 00000+0 0 9998 2 32388 0.0128 274.5957 0002862 103.7610 194.3531 1.00271381 48924 DIRECTV 11 1 32729U 08013A 21104.59436913 -.00000124 00000-0 00000+0 0 9990 2 32729 0.0238 46.0923 0000067 63.6983 207.9706 1.00271587 47980 GALAXY 18 1 32951U 08024A 21103.71944182 .00000024 00000-0 00000+0 0 9992 2 32951 0.0128 258.0375 0002783 126.1093 313.9526 1.00273099 47129 INTELSAT 25(PROTOSTAR 1) 1 33153U 08034A 21103.73776135 -.00000224 00000-0 00000+0 0 9994 2 33153 0.0191 240.9823 0002876 138.1063 57.1412 1.00273320 46683 GALAXY 19 1 33376U 08045A 21104.59629299 -.00000138 00000-0 00000+0 0 9990 2 33376 0.0146 208.0747 0002959 184.1887 288.3710 1.00269985 45889 SIRIUS FM-5 1 35493U 09034A 21103.58326333 -.00000202 00000-0 00000+0 0 9994 2 35493 0.0265 290.2800 0000764 75.2533 320.2810 1.00271692 43014 INTELSAT 14 1 36097U 09064A 21103.73505705 -.00000274 00000-0 00000+0 0 9996 2 36097 0.0143 255.5512 0002394 130.7936 35.4168 1.00271700 41737 INTELSAT 15 1 36106U 09067A 21103.75188267 -.00000185 00000-0 00000+0 0 9993 2 36106 0.0206 229.2920 0002151 153.6524 175.0326 1.00270137 41647 DIRECTV 12 1 36131U 09075A 21104.45883045 -.00000102 00000-0 00000+0 0 9993 2 36131 0.0181 223.6971 0000130 217.4323 184.1758 1.00270047 41439 INTELSAT 16 1 36397U 10006A 21104.44662303 -.00000243 00000-0 00000+0 0 9990 2 36397 0.0119 216.6496 0001929 179.0109 251.7515 1.00269076 40778 XM-5 1 37185U 10053A 21104.44479108 -.00000204 00000-0 00000+0 0 9994 2 37185 0.0149 221.7695 0005316 8.7693 47.2544 1.00271621 38490 INTELSAT 17 1 37238U 10065B 21103.75721495 -.00000003 00000-0 00000+0 0 9995 2 37238 0.0230 229.9122 0002845 176.5212 134.3168 1.00273511 37961 INTELSAT NEW DAWN 1 37392U 11016A 21104.01646442 .00000156 00000-0 00000+0 0 9999 2 37392 0.0168 228.6475 0000281 173.1856 199.2937 1.00273426 36562 INTELSAT 18 1 37834U 11056A 21104.59105792 .00000054 00000-0 00000+0 0 9992 2 37834 0.0138 279.5794 0001906 114.6649 201.4939 1.00272464 34897 INTELSAT 22 1 38098U 12011A 21103.68663788 -.00000060 00000-0 00000+0 0 9998 2 38098 0.0085 219.6215 0002785 167.1370 134.6150 1.00272792 33091 INTELSAT 19 1 38356U 12030A 21103.58247102 -.00000058 00000-0 00000+0 0 9990 2 38356 0.0163 209.4426 0002874 179.6823 188.5506 1.00271324 32559 INTELSAT 20 1 38740U 12043A 21104.54720602 -.00000023 00000-0 00000+0 0 9991 2 38740 0.0148 175.8486 0000998 13.7048 278.8721 1.00271659 31881 INTELSAT 21 1 38749U 12045A 21103.73243997 -.00000286 00000-0 00000+0 0 9990 2 38749 0.0124 255.4533 0002216 150.0910 2.2754 1.00274579 31687 INTELSAT 23 1 38867U 12057A 21104.45124654 -.00000284 00000-0 00000+0 0 9990 2 38867 0.0123 237.8665 0001595 142.1259 292.3068 1.00270702 31150 SIRIUS FM-6 1 39360U 13058A 21104.63861178 -.00000015 00000-0 00000+0 0 9992 2 39360 0.0298 265.5481 0000398 359.5742 51.6327 1.00270661 27396 INTELSAT 30 1 40271U 14062A 21103.38565328 -.00000153 00000-0 00000+0 0 9993 2 40271 0.0204 245.9030 0001441 254.9189 104.7508 1.00272230 23808 INTELSAT 34 1 40874U 15039A 21104.45072312 -.00000284 00000-0 00000+0 0 9997 2 40874 0.0205 247.6969 0000834 343.5588 78.3602 1.00271720 20666 INTELSAT 29E 1 41308U 16004A 21102.76684383 -.00000228 00000-0 00000+0 0 9990 2 41308 1.7537 91.6109 0014575 326.9545 197.7360 1.00614004 19215 INTELSAT 31 1 41581U 16035A 21103.32486605 -.00000153 00000-0 00000+0 0 9994 2 41581 0.0177 239.6359 0002674 336.7529 7.2316 1.00272323 17734 INTELSAT 36 1 41747U 16053A 21104.04481456 -.00000025 00000-0 00000+0 0 9995 2 41747 0.0288 308.1479 0001061 45.7520 293.1763 1.00272485 17004 INTELSAT 33E 1 41748U 16053B 21103.78484890 .00000048 00000-0 00000+0 0 9995 2 41748 0.0391 20.1238 0001681 359.6550 164.9266 1.00272794 17266 INTELSAT 32E 1 41945U 17007B 21103.73540598 -.00000270 00000-0 00000+0 0 9995 2 41945 0.0241 218.4644 0000440 58.8200 146.4112 1.00268822 15297 INTELSAT 35E 1 42818U 17041A 21103.73715071 -.00000239 00000-0 00000+0 0 9998 2 42818 0.0137 209.7046 0001927 177.7861 45.5261 1.00272305 13883 INTELSAT 37E 1 42950U 17059A 21103.66866729 -.00000142 00000-0 00000+0 0 9996 2 42950 0.0286 228.5328 0002176 177.7160 18.5271 1.00270623 13091